DW4535 Weather Reports


Display with metric or nautical units.
time (UTC)temp
F
wind
direction
speed
MPH
gust
MPH
rain 1hr
in
rain 24hr
in
rain mn
in
humidity
%
barometer
mb
20180123160723 50 134 0.0 0.0 0.00 0.00 0.00 27 1013.1
20180123155218 50 189 0.0 0.0 0.00 0.00 0.00 26 1013.0
20180123153713 49 184 0.0 0.0 0.00 0.00 0.00 29 1013.1
20180123152208 49 158 0.0 0.0 0.00 0.00 0.00 33 1014.4
20180123150706 49 175 0.0 0.0 0.00 0.00 0.00 32 1014.5
20180123145200 48 207 0.0 0.0 0.00 0.00 0.00 34 1014.5
20180123143658 48 136 0.0 0.0 0.00 0.00 0.00 37 1014.6
20180123142152 48 184 0.0 0.0 0.00 0.00 0.00 40 1015.0
20180123140646 48 174 0.0 0.0 0.00 0.00 0.00 36 1015.4
20180123135143 48 157 0.0 0.0 0.00 0.00 0.00 35 1015.4
20180123133637 47 142 0.0 0.0 0.00 0.00 0.00 36 1016.3
20180123132132 48 143 0.0 0.0 0.00 0.00 0.00 37 1016.6
20180123130629 48 111 0.0 0.0 0.00 0.00 0.00 37 1016.9
20180123125124 48 104 0.0 0.0 0.00 0.00 0.00 40 1017.2
20180123123620 49 146 0.0 0.0 0.00 0.00 0.00 43 1017.4
20180123122119 49 139 0.0 0.0 0.00 0.00 0.00 45 1017.5
20180123120612 49 150 0.0 0.0 0.00 0.00 0.00 46 1017.9
20180123115109 50 115 0.0 0.0 0.00 0.00 0.00 48 1018.4
20180123113600 50 113 0.0 0.0 0.00 0.00 0.00 45 1018.7
20180123112101 50 221 0.0 0.0 0.00 0.00 0.00 45 1018.9
20180123110556 50 123 0.0 0.0 0.00 0.00 0.00 47 1019.2
20180123105047 49 145 0.0 0.0 0.00 0.00 0.00 45 1019.6
20180123103546 48 167 0.0 0.0 0.00 0.00 0.00 41 1019.7
20180123102040 48 97 0.0 0.0 0.00 0.00 0.00 39 1019.9
20180123100536 48 108 0.0 0.0 0.00 0.00 0.00 37 1020.4
20180123095029 47 90 0.0 0.0 0.00 0.00 0.00 36 1020.6
20180123093525 47 89 0.0 0.0 0.00 0.00 0.00 34 1021.0
20180123092021 47 90 0.0 0.0 0.00 0.00 0.00 31 1021.3
20180123090516 47 84 0.0 0.0 0.00 0.00 0.00 29 1021.5
20180123085014 47 116 0.0 0.0 0.00 0.00 0.00 28 1021.9
20180123083507 47 100 0.0 0.0 0.00 0.00 0.00 24 1022.2
20180123082105 47 95 0.0 0.0 0.00 0.00 0.00 20 1022.5
20180123080459 47 80 0.0 0.0 0.00 0.00 0.00 14 1022.7
20180123074957 47 127 0.0 0.0 0.00 0.00 0.00 8 1022.9
20180123073449 46 84 0.0 0.0 0.00 0.00 0.00 5 1023.1
20180123071945 46 84 0.0 0.0 0.00 0.00 0.00 1 1023.3
20180123070440 46 108 0.0 0.0 0.00 0.00 0.00 100 1023.3
20180123064935 45 85 0.0 0.0 0.00 0.00 0.00 100 1023.4
20180123063432 45 91 0.0 0.0 0.00 0.00 0.00 100 1023.6
20180123061926 45 96 0.0 0.0 0.00 0.00 0.00 100 1023.6
20180123060424 45 112 0.0 0.0 0.00 0.00 0.00 100 1023.8
20180123054918 45 86 0.0 0.0 0.00 0.00 0.00 100 1023.9
20180123053415 45 85 0.0 0.0 0.00 0.00 0.00 100 1024.0
20180123051910 45 98 0.0 0.0 0.00 0.00 0.00 100 1023.8
20180123050404 45 91 0.0 0.0 0.00 0.00 0.00 100 1024.0
20180123044859 45 65 0.0 0.0 0.00 0.00 0.00 100 1023.9
20180123043355 45 82 0.0 0.0 0.00 0.00 0.00 100 1024.1
20180123041851 45 85 0.0 0.0 0.00 0.00 0.00 100 1024.4
20180123040350 45 96 0.0 0.0 0.00 0.00 0.00 100 1024.7
20180123034943 45 104 0.0 0.0 0.00 0.00 0.00 100 1024.9
20180123033342 45 100 0.0 0.0 0.00 0.00 0.00 100 1024.9
20180123031834 45 95 0.0 0.0 0.00 0.00 0.00 1 1025.0
20180123030329 45 95 0.0 0.0 0.00 0.00 0.00 4 1025.0
20180123024828 45 89 0.0 0.0 0.00 0.00 0.00 9 1024.9
20180123023325 46 90 0.0 0.0 0.00 0.00 0.00 14 1025.3
20180123021822 46 94 0.0 0.0 0.00 0.00 0.00 18 1025.5
20180123020318 47 102 0.0 0.0 0.00 0.00 0.00 18 1025.6
20180123014812 46 86 0.0 0.0 0.00 0.00 0.00 22 1025.6
20180123013305 47 89 0.0 0.0 0.00 0.00 0.00 25 1025.8
20180123011759 48 95 0.0 0.0 0.00 0.00 0.00 26 1025.8
20180123010254 48 139 0.0 0.0 0.00 0.00 0.00 28 1025.7
20180123004748 49 140 0.0 0.0 0.00 0.00 0.00 29 1025.8
20180123003251 49 141 0.0 0.0 0.00 0.00 0.00 30 1025.8
20180123001748 49 141 0.0 0.0 0.00 0.00 0.00 30 1025.7
20180123000240 50 198 0.0 0.0 0.00 0.00 0.00 30 1025.7
20180122234739 50 182 0.0 0.0 0.00 0.00 0.00 33 1025.9
20180122233230 50 184 0.0 0.0 0.00 0.00 0.00 34 1026.1
20180122231726 50 192 0.0 0.0 0.00 0.00 0.00 33 1026.2
20180122230222 50 194 0.0 0.0 0.00 0.00 0.00 31 1026.2
20180122224722 50 182 0.0 0.0 0.00 0.00 0.00 31 1026.1
20180122223213 50 184 0.0 0.0 0.00 0.00 0.00 27 1026.1
20180122221708 50 162 0.0 0.0 0.00 0.00 0.00 24 1026.0
20180122220209 49 179 0.0 0.0 0.00 0.00 0.00 20 1026.1
20180122214703 48 207 0.0 0.0 0.00 0.00 0.00 26 1026.2
20180122213158 48 272 0.0 0.0 0.00 0.00 0.00 23 1026.1
20180122211651 49 276 0.0 0.0 0.00 0.00 0.00 38 1026.4
20180122210147 50 187 0.0 0.0 0.00 0.00 0.00 29 1026.5
20180122204641 50 210 0.0 0.0 0.00 0.00 0.00 33 1026.5
20180122203136 50 216 0.0 0.0 0.00 0.00 0.00 36 1026.6
20180122201635 50 223 0.0 0.0 0.00 0.00 0.00 41 1026.6
20180122200127 50 224 0.0 0.0 0.00 0.00 0.00 39 1026.5
20180122194625 50 221 0.0 0.0 0.00 0.00 0.00 38 1026.3
20180122193119 50 210 0.0 0.0 0.00 0.00 0.00 32 1026.0
20180122191619 50 214 0.0 0.0 0.00 0.00 0.00 34 1026.0
20180122190109 50 234 0.0 0.0 0.00 0.00 0.00 34 1026.0
20180122184605 50 216 0.0 0.0 0.00 0.00 0.00 36 1025.9
20180122183100 50 220 0.0 0.0 0.00 0.00 0.00 38 1025.7
20180122181556 50 231 0.0 0.0 0.00 0.00 0.00 42 1025.5
20180122180052 49 246 0.0 0.0 0.00 0.00 0.00 44 1025.3
20180122174547 50 231 0.0 0.0 0.00 0.00 0.00 44 1025.2
20180122173042 50 245 0.0 0.0 0.00 0.00 0.00 45 1025.0
20180122171539 49 234 0.0 0.0 0.00 0.00 0.00 46 1024.8
20180122170036 50 241 0.0 0.0 0.00 0.00 0.00 33 1024.7
20180122164531 49 220 0.0 0.0 0.00 0.00 0.00 100 1024.5
20180122163025 44 201 0.0 0.0 0.00 0.00 0.00 100 1024.2
20180122161520 43 145 0.0 0.0 0.00 0.00 0.00 100 1024.2